Precipitable_Water
1.42 1.43 1.24 1.10 0.95 0.85 0.77 0.64 0.51 0.44 0.44 0.46 0.47 0.52 0.58 0.59 0.57 0.50 0.41 0.48 0.51 0.56 0.57 0.60 0.58 0.55 0.52 0.49 0.51 0.48 0.34 0.29 0.31 0.36 0.42 0.48 0.46 0.52 0.57 0.59 0.67 0.69 0.64 0.80 1.05
1.36 1.36 1.37 1.35 1.17 1.06 0.90 0.81 0.65 0.51 0.45 0.46 0.47 0.47 0.53 0.56 0.45 0.39 0.51 0.58 0.61 0.59 0.50 0.46 0.45 0.47 0.44 0.46 0.47 0.43 0.36 0.31 0.38 0.40 0.43 0.46 0.48 0.48 0.48 0.54 0.56 0.66 0.77 0.90 1.00
1.22 1.26 1.29 1.33 1.37 1.27 1.14 0.91 0.82 0.67 0.51 0.46 0.46 0.48 0.47 0.50 0.34 0.35 0.53 0.61 0.64 0.58 0.54 0.50 0.48 0.42 0.37 0.43 0.44 0.43 0.36 0.41 0.39 0.42 0.46 0.46 0.47 0.50 0.46 0.45 0.54 0.54 0.70 0.82 0.90
1.00 1.08 1.18 1.25 1.29 1.33 1.35 1.21 0.98 0.83 0.66 0.54 0.50 0.49 0.47 0.38 0.18 0.42 0.56 0.59 0.64 0.60 0.52 0.50 0.45 0.37 0.35 0.33 0.42 0.34 0.40 0.40 0.42 0.45 0.44 0.44 0.48 0.46 0.48 0.49 0.56 0.55 0.70 0.81 0.81
0.64 0.73 0.90 1.06 1.20 1.24 1.30 1.38 1.31 1.07 0.81 0.64 0.57 0.54 0.42 0.25 0.23 0.47 0.56 0.57 0.59 0.55 0.48 0.48 0.45 0.42 0.34 0.34 0.37 0.35 0.38 0.42 0.44 0.43 0.42 0.45 0.43 0.45 0.48 0.54 0.57 0.59 0.63 0.74 0.79
0.56 0.54 0.58 0.70 0.91 1.08 1.19 1.30 1.39 1.37 1.11 0.78 0.64 0.59 0.39 0.20 0.34 0.37 0.47 0.53 0.55 0.54 0.50 0.51 0.48 0.50 0.41 0.36 0.35 0.38 0.38 0.38 0.41 0.42 0.42 0.38 0.37 0.43 0.48 0.55 0.56 0.59 0.62 0.70 0.77
0.55 0.56 0.58 0.55 0.58 0.69 0.93 1.08 1.30 1.41 1.38 1.10 0.79 0.60 0.39 0.27 0.37 0.40 0.41 0.42 0.51 0.54 0.50 0.53 0.53 0.43 0.44 0.38 0.41 0.38 0.32 0.36 0.38 0.40 0.40 0.42 0.34 0.36 0.44 0.52 0.55 0.59 0.62 0.66 0.73
0.51 0.53 0.56 0.60 0.58 0.58 0.59 0.85 1.00 1.29 1.41 1.32 1.13 0.73 0.34 0.50 0.45 0.36 0.36 0.38 0.44 0.52 0.54 0.56 0.54 0.48 0.47 0.50 0.41 0.33 0.35 0.26 0.37 0.37 0.40 0.39 0.25 0.40 0.45 0.46 0.47 0.53 0.62 0.67 0.74
0.49 0.45 0.48 0.53 0.56 0.59 0.58 0.60 0.84 1.07 1.31 1.35 1.14 0.92 0.55 0.61 0.40 0.38 0.36 0.29 0.34 0.44 0.51 0.58 0.53 0.45 0.47 0.35 0.32 0.32 0.22 0.27 0.32 0.38 0.38 0.36 0.28 0.40 0.45 0.46 0.47 0.50 0.56 0.64 0.70
0.56 0.54 0.51 0.45 0.50 0.54 0.55 0.60 0.69 1.06 1.08 1.17 1.11 0.87 0.81 0.59 0.48 0.43 0.42 0.34 0.29 0.35 0.39 0.46 0.47 0.38 0.37 0.34 0.22 0.24 0.25 0.26 0.28 0.39 0.39 0.36 0.32 0.40 0.45 0.45 0.47 0.51 0.56 0.64 0.69
0.57 0.57 0.57 0.55 0.50 0.49 0.49 0.54 0.53 0.61 0.81 0.68 0.76 0.79 0.74 0.81 0.70 0.56 0.47 0.38 0.30 0.31 0.26 0.38 0.32 0.25 0.30 0.35 0.33 0.29 0.29 0.27 0.31 0.39 0.36 0.36 0.39 0.40 0.45 0.46 0.46 0.48 0.52 0.58 0.67
0.58 0.59 0.61 0.62 0.59 0.57 0.48 0.34 0.56 0.68 0.51 0.76 0.79 0.77 0.84 0.83 0.72 0.63 0.59 0.34 0.28 0.21 0.28 0.32 0.23 0.27 0.35 0.37 0.36 0.32 0.29 0.28 0.32 0.37 0.38 0.35 0.36 0.42 0.43 0.45 0.48 0.46 0.49 0.52 0.61
0.62 0.61 0.61 0.64 0.65 0.58 0.48 0.40 0.57 0.69 0.48 0.52 0.67 0.70 0.80 0.81 0.66 0.65 0.65 0.50 0.34 0.24 0.24 0.24 0.22 0.31 0.30 0.32 0.32 0.31 0.29 0.30 0.30 0.35 0.38 0.38 0.31 0.35 0.37 0.41 0.46 0.48 0.50 0.52 0.59
0.61 0.64 0.65 0.67 0.55 0.55 0.45 0.52 0.53 0.54 0.28 0.34 0.42 0.51 0.63 0.77 0.65 0.71 0.70 0.59 0.47 0.32 0.25 0.29 0.27 0.33 0.34 0.31 0.32 0.24 0.31 0.34 0.34 0.32 0.24 0.32 0.23 0.31 0.33 0.35 0.44 0.45 0.48 0.49 0.58
0.57 0.63 0.65 0.67 0.56 0.47 0.52 0.55 0.65 0.52 0.08 0.22 0.40 0.59 0.57 0.48 0.54 0.66 0.73 0.65 0.51 0.46 0.38 0.25 0.27 0.28 0.32 0.29 0.35 0.27 0.37 0.37 0.37 0.32 0.32 0.29 0.28 0.31 0.35 0.32 0.37 0.42 0.48 0.52 0.59
0.55 0.60 0.65 0.67 0.65 0.60 0.66 0.66 0.58 0.23 0.09 0.20 0.35 0.36 0.38 0.43 0.45 0.60 0.58 0.64 0.60 0.50 0.42 0.35 0.36 0.34 0.29 0.37 0.37 0.39 0.37 0.39 0.39 0.36 0.24 0.27 0.29 0.21 0.27 0.32 0.39 0.43 0.48 0.53 0.59
0.57 0.58 0.61 0.68 0.52 0.69 0.70 0.47 0.25 0.18 0.25 0.15 0.20 0.33 0.35 0.36 0.40 0.48 0.45 0.44 0.43 0.40 0.39 0.42 0.37 0.40 0.39 0.33 0.38 0.39 0.33 0.25 0.25 0.26 0.19 0.27 0.24 0.22 0.34 0.37 0.39 0.41 0.46 0.53 0.57
0.58 0.59 0.61 0.63 0.72 0.71 0.62 0.34 0.17 0.15 0.19 0.27 0.25 0.31 0.30 0.36 0.36 0.41 0.40 0.38 0.45 0.44 0.40 0.36 0.34 0.38 0.45 0.37 0.29 0.34 0.32 0.23 0.18 0.20 0.19 0.26 0.20 0.26 0.39 0.46 0.43 0.45 0.48 0.53 0.57
0.60 0.57 0.57 0.63 0.71 0.68 0.45 0.22 0.16 0.17 0.18 0.18 0.23 0.28 0.30 0.34 0.35 0.36 0.37 0.35 0.39 0.42 0.36 0.35 0.33 0.43 0.44 0.51 0.42 0.36 0.32 0.29 0.27 0.25 0.22 0.22 0.24 0.32 0.42 0.43 0.41 0.43 0.49 0.51 0.56
0.57 0.53 0.51 0.68 0.74 0.60 0.36 0.25 0.22 0.21 0.19 0.27 0.20 0.24 0.21 0.29 0.32 0.36 0.34 0.34 0.32 0.41 0.45 0.41 0.35 0.42 0.45 0.50 0.50 0.44 0.44 0.32 0.32 0.20 0.18 0.18 0.21 0.22 0.31 0.38 0.40 0.42 0.44 0.50 0.62
0.55 0.42 0.53 0.72 0.72 0.47 0.27 0.27 0.28 0.24 0.24 0.21 0.23 0.24 0.24 0.27 0.33 0.32 0.32 0.30 0.34 0.34 0.40 0.41 0.43 0.41 0.44 0.43 0.37 0.44 0.43 0.42 0.40 0.33 0.22 0.18 0.21 0.31 0.31 0.40 0.38 0.40 0.48 0.55 0.68
0.51 0.31 0.57 0.69 0.40 0.38 0.30 0.32 0.34 0.27 0.28 0.26 0.27 0.24 0.24 0.27 0.28 0.32 0.29 0.29 0.34 0.36 0.35 0.38 0.39 0.32 0.42 0.49 0.51 0.49 0.41 0.42 0.34 0.29 0.33 0.29 0.20 0.38 0.39 0.42 0.45 0.44 0.50 0.64 0.74
0.42 0.42 0.60 0.59 0.28 0.30 0.35 0.34 0.35 0.31 0.27 0.29 0.29 0.27 0.23 0.25 0.30 0.36 0.39 0.38 0.38 0.35 0.34 0.35 0.36 0.30 0.35 0.45 0.51 0.41 0.43 0.47 0.42 0.38 0.31 0.29 0.20 0.43 0.45 0.49 0.48 0.49 0.56 0.66 0.70
0.45 0.31 0.43 0.50 0.41 0.32 0.31 0.29 0.29 0.35 0.30 0.30 0.28 0.28 0.26 0.24 0.32 0.32 0.34 0.42 0.42 0.41 0.41 0.38 0.37 0.35 0.32 0.35 0.41 0.46 0.46 0.48 0.46 0.39 0.28 0.33 0.27 0.41 0.47 0.48 0.51 0.53 0.60 0.66 0.69
0.43 0.33 0.39 0.26 0.34 0.32 0.33 0.29 0.26 0.29 0.32 0.34 0.31 0.31 0.23 0.18 0.21 0.23 0.34 0.41 0.50 0.48 0.43 0.39 0.33 0.36 0.36 0.36 0.43 0.44 0.47 0.49 0.46 0.41 0.37 0.28 0.35 0.40 0.45 0.52 0.54 0.59 0.63 0.65 0.66
0.39 0.32 0.38 0.31 0.36 0.36 0.34 0.31 0.28 0.29 0.31 0.28 0.29 0.28 0.28 0.25 0.25 0.18 0.27 0.34 0.42 0.51 0.51 0.47 0.33 0.37 0.33 0.36 0.40 0.38 0.40 0.44 0.47 0.43 0.44 0.36 0.35 0.48 0.50 0.54 0.59 0.60 0.64 0.62 0.60
0.54 0.52 0.42 0.31 0.32 0.34 0.30 0.27 0.25 0.27 0.31 0.32 0.27 0.26 0.29 0.28 0.33 0.39 0.43 0.47 0.57 0.51 0.53 0.48 0.41 0.36 0.28 0.34 0.36 0.35 0.34 0.39 0.41 0.46 0.45 0.38 0.38 0.55 0.52 0.55 0.57 0.58 0.59 0.62 0.70
Wind_Speed
30 29 28 29 29 27 27 26 26 26 25 25 24 24 23 22 21 20 19 16 15 12 12 10 10 8 7 6 5 5 5 5 4 6 4 5 7 8 9 10 10 8 6 5 6
33 32 30 29 30 30 29 28 27 27 27 26 26 25 24 23 23 23 20 20 19 17 14 13 12 11 10 8 7 7 8 5 4 4 4 5 7 9 11 12 12 11 8 7 8
35 34 33 32 31 30 31 31 29 29 28 28 27 26 25 24 24 23 21 20 21 20 17 15 14 13 13 11 10 8 9 6 7 7 7 6 7 9 12 14 15 15 13 12 11
35 36 36 35 35 33 32 33 32 31 30 29 28 27 27 25 24 24 22 20 21 21 20 18 17 16 15 15 13 13 12 11 9 9 10 10 9 10 12 13 12 14 14 15 14
35 35 36 36 37 37 35 34 35 34 33 31 31 29 28 29 30 25 23 23 22 22 22 20 20 18 18 15 16 17 14 13 13 12 13 13 14 14 14 14 15 15 16 17 17
36 36 36 36 36 37 38 37 36 36 35 34 33 31 31 33 29 30 27 24 24 24 24 23 21 21 19 19 19 14 16 16 15 16 15 16 16 16 16 16 16 18 19 19 19
36 36 36 36 36 36 38 38 38 40 38 37 36 34 36 37 29 29 29 29 26 24 25 25 24 23 20 21 21 20 20 20 20 19 18 15 18 20 17 17 19 19 20 21 22
36 36 36 37 38 37 37 39 39 40 42 40 37 36 39 35 35 36 33 32 31 29 27 26 25 25 25 21 20 21 21 21 15 18 17 17 17 12 14 17 20 23 22 24 23
33 34 36 36 37 38 38 39 40 40 40 41 41 38 39 36 38 38 37 34 31 31 30 28 27 28 25 26 24 23 24 22 22 20 17 20 20 13 14 15 18 20 23 25 25
32 33 34 35 36 37 38 39 40 38 39 39 40 39 43 36 35 37 37 39 34 32 31 32 29 30 30 29 29 26 23 26 25 19 22 23 25 20 18 18 18 18 20 24 27
31 32 33 33 34 35 35 35 36 39 43 43 40 42 35 36 36 35 34 37 38 36 37 35 33 38 35 33 31 29 28 29 26 20 24 26 28 27 25 23 22 22 20 22 25
32 32 31 31 32 32 32 32 34 37 41 48 48 47 45 38 38 40 34 36 39 43 38 35 44 39 35 34 34 34 33 32 29 27 27 30 34 32 29 27 26 25 24 24 25
34 33 32 31 31 30 30 30 32 36 39 43 48 50 49 43 41 39 41 39 41 42 44 44 42 39 39 38 36 37 37 32 32 29 32 31 37 36 34 32 28 28 27 25 26
35 34 33 32 31 30 29 29 30 30 34 40 43 47 49 47 49 49 45 39 40 45 45 43 45 36 39 40 37 38 35 34 33 30 32 28 34 32 27 27 25 26 26 25 25
34 34 34 35 31 30 28 27 26 26 26 31 39 40 43 50 39 46 49 45 43 44 45 46 41 44 40 43 37 39 32 31 31 33 35 39 33 33 32 32 28 27 26 26 25
34 34 34 35 35 32 29 26 26 25 31 28 31 37 42 50 51 42 46 47 44 41 41 50 39 40 48 41 39 32 32 29 29 29 34 35 31 37 33 31 27 26 26 25 24
34 34 35 35 35 34 30 29 28 29 28 34 33 33 39 41 45 49 48 51 49 44 45 50 50 42 41 39 38 37 32 29 29 30 36 24 29 40 25 27 26 27 25 25 26
35 35 36 37 36 36 33 31 32 35 39 28 31 35 36 35 39 45 47 49 55 51 45 46 42 51 46 49 41 41 37 30 31 31 37 31 35 32 32 31 31 29 27 26 25
34 35 37 36 37 37 34 35 38 38 37 40 38 32 36 38 37 39 48 50 53 56 51 45 53 42 44 44 45 38 41 42 29 34 32 35 41 36 29 30 28 27 26 26 27
34 35 38 36 36 36 37 43 40 43 37 34 37 36 40 38 37 35 39 47 51 54 55 50 44 45 43 40 43 42 38 32 33 30 36 39 38 35 30 31 27 27 28 27 26
34 33 33 36 36 37 38 39 44 45 43 40 38 36 36 37 38 42 38 44 42 48 52 54 46 40 39 43 48 41 41 40 37 35 34 40 39 35 37 31 29 25 24 24 23
32 34 32 35 36 38 42 37 40 40 41 44 39 41 40 38 36 42 49 49 35 40 50 54 43 49 43 45 43 45 44 46 36 40 38 39 48 32 30 29 28 25 22 20 19
32 32 34 38 39 40 39 43 44 39 41 42 40 39 40 39 37 39 40 46 45 38 40 48 46 44 43 41 43 51 47 44 45 35 42 36 47 26 28 28 25 22 20 19 19
30 30 34 39 43 44 41 41 44 43 41 43 43 42 38 39 36 34 41 36 42 45 47 41 46 52 47 50 40 44 48 47 44 39 47 41 52 29 28 28 26 25 22 22 22
35 34 34 35 41 46 47 45 48 45 45 41 43 43 43 42 40 42 42 40 38 37 44 45 46 50 54 56 46 42 47 47 48 51 44 54 47 43 41 36 34 32 30 28 27
36 36 35 37 37 40 41 46 46 47 44 44 44 43 45 42 40 40 40 44 38 33 36 41 43 47 52 53 52 50 48 49 52 54 50 55 54 40 35 32 34 32 31 31 30
44 40 39 39 40 37 42 45 47 46 47 46 47 44 43 43 40 38 36 37 33 34 33 39 41 44 48 47 46 48 58 51 48 49 51 50 50 38 42 40 36 34 33 31 30
Wind_Direction
245 245 246 245 244 244 245 244 243 243 242 241 241 242 244 246 250 244 243 238 240 248 238 241 241 243 248 252 265 272 264 243 229 228 223 237 231 226 230 228 229 234 254 254 208
246 246 246 246 245 244 245 245 245 244 243 243 243 243 244 247 246 244 240 244 243 240 237 238 241 243 244 248 252 259 270 262 259 241 238 254 247 244 232 232 232 234 240 228 220
245 246 245 246 246 245 245 245 245 245 244 244 244 244 245 245 242 233 242 246 238 233 237 238 241 245 248 247 244 251 264 269 253 247 260 263 256 260 241 236 237 236 230 229 226
246 247 247 246 246 246 246 245 245 245 244 244 244 245 245 239 236 233 241 242 234 232 236 237 239 241 248 246 244 255 258 262 265 253 263 263 270 261 256 247 241 244 238 232 232
249 247 248 248 247 246 246 246 245 245 244 244 244 244 242 237 236 236 241 240 236 234 235 236 238 242 245 250 248 250 256 259 260 258 264 268 267 267 259 254 250 245 239 235 236
249 249 249 249 248 247 247 246 246 244 244 244 243 243 240 239 238 238 240 239 237 236 236 237 242 245 250 248 248 256 256 258 260 262 263 266 268 265 261 259 255 246 242 239 239
250 250 249 250 250 250 248 248 248 245 244 242 242 242 241 238 239 238 239 238 239 238 238 239 242 241 246 250 249 253 258 257 257 257 262 268 271 260 264 259 258 254 247 243 241
249 250 250 250 250 251 251 249 249 247 242 241 240 241 242 240 240 241 241 240 239 239 239 241 239 242 244 249 249 252 253 257 253 250 257 253 270 269 272 264 261 255 251 246 242
251 251 251 251 251 252 252 252 249 248 241 239 239 240 245 241 240 240 237 237 237 236 237 239 239 241 242 243 247 244 254 249 254 250 256 250 267 269 275 272 271 262 254 249 245
252 252 253 253 253 253 254 253 247 244 240 239 239 241 241 240 239 239 236 233 235 234 235 236 238 240 240 237 242 246 250 250 255 254 256 257 262 265 270 274 274 268 262 254 247
253 254 254 254 254 254 255 250 244 242 239 238 239 237 241 242 240 237 234 230 231 233 233 232 236 237 237 240 249 254 254 253 254 257 261 260 262 267 271 269 270 269 268 259 249
254 253 253 254 253 253 253 250 246 246 246 241 241 240 241 246 242 236 231 228 227 231 230 233 238 240 241 243 246 247 252 254 257 258 262 267 267 267 267 268 266 269 267 262 253
253 253 253 252 252 251 250 249 248 249 246 243 240 239 238 238 239 237 231 231 231 230 229 232 240 239 240 240 243 245 249 254 258 264 260 270 267 266 264 266 266 265 268 265 253
253 252 251 250 251 249 251 249 250 248 247 244 240 242 235 237 242 235 233 235 232 233 232 237 240 239 236 240 238 246 248 255 259 260 263 264 271 264 266 262 263 269 264 264 255
253 251 250 246 248 247 249 247 245 246 248 240 235 239 236 229 237 234 232 233 236 233 227 235 236 234 237 240 239 249 250 252 256 259 266 259 265 264 265 260 263 262 264 264 255
253 250 248 246 247 246 246 243 242 241 243 244 239 234 234 233 234 237 227 231 235 236 235 237 238 236 239 242 242 245 245 248 254 258 258 259 258 266 260 259 257 264 265 261 254
252 249 247 245 246 241 242 242 242 240 244 244 240 235 235 232 233 231 228 226 227 227 230 237 237 238 238 239 236 235 236 245 250 246 256 263 255 258 271 261 259 264 265 258 260
251 249 247 245 243 237 238 238 239 240 237 244 241 234 234 232 234 229 230 229 227 229 234 234 235 233 234 235 235 234 233 239 245 250 260 256 256 268 264 259 262 263 264 261 258
250 248 246 243 239 234 235 236 238 236 241 243 243 242 237 237 237 231 228 230 229 228 232 234 239 237 235 237 231 232 233 241 255 259 264 257 261 263 262 262 265 260 257 261 261
247 247 245 239 233 233 235 239 242 238 240 240 240 239 240 235 234 234 230 234 234 231 232 237 245 237 234 233 235 232 236 234 238 248 250 260 261 263 259 257 258 257 260 264 256
244 248 244 233 228 233 236 239 240 240 237 237 239 241 242 244 237 234 235 236 234 234 233 236 239 239 228 228 229 230 234 235 239 245 251 261 264 263 258 253 258 257 263 263 251
243 246 240 225 230 236 237 238 241 239 236 238 241 240 242 241 246 241 238 236 237 238 232 231 236 239 231 236 233 231 233 231 238 239 247 258 263 261 259 255 255 260 262 255 244
243 244 237 227 233 236 238 240 239 237 235 234 236 236 238 243 244 242 245 241 240 238 236 230 231 237 235 234 232 232 234 234 240 246 243 246 256 258 256 255 253 251 253 246 242
243 244 238 234 237 235 235 236 235 236 237 235 237 238 238 239 238 243 242 244 240 239 240 236 232 231 232 230 235 234 236 237 237 241 247 245 255 250 252 251 251 249 247 248 246
241 245 242 240 240 236 234 238 236 235 234 234 236 234 234 239 240 242 243 244 245 242 239 234 235 235 235 236 234 236 237 238 236 240 241 247 253 255 255 253 251 250 248 248 245
244 242 241 242 238 236 234 232 233 234 231 232 236 236 236 239 240 244 245 242 240 241 246 234 234 234 238 238 239 240 240 238 238 242 243 251 256 253 253 254 250 249 243 243 247
241 242 239 240 236 235 234 234 236 234 232 233 235 237 235 237 240 244 248 244 238 239 244 235 231 231 237 236 239 240 237 239 244 242 244 248 252 254 253 253 249 246 242 241 240